Weather History for Casa Grande, AZ

Change the Weather History Date:

Saturday, October 20, 2012

  Actual Average Record
Temperature  
Mean Temperature 74 °F -  
Max Temperature 89 °F 81 °F 100 °F (2003)
Min Temperature 60 °F 54 °F 44 °F (2006)
Cooling Degree Days 10    
Growing Degree Days 24 (Base 50)    
Moisture  
Dew Point 37 °F    
Average Humidity 26    
Maximum Humidity 39    
Minimum Humidity 16    
Precipitation  
Precipitation 0.00 in - - ()
Sea Level Pressure  
Sea Level Pressure 29.82 in    
Wind  
Wind Speed 0 mph (West)    
Max Wind Speed 10 mph    
Max Gust Speed 16 mph    
Visibility 10 miles    
Events      
Averages and records for this station are not official NWS values.
T = Trace of Precipitation, MM = Missing Value Source: NWS Daily Summary

Daily Weather History Graph

Daily Weather History Graph

Search for Another Location

Airport:

Trip Planner

Search our weather history database for the weather conditions in past years. The results will help you decide how hot, cold, wet, or windy it might be!

Date:

Astronomy

Oct. 20, 2012 Rise Set
Actual Time 6:35 AM MST 5:47 PM MST
Civil Twilight 6:10 AM MST 6:12 PM MST
Nautical Twilight 5:41 AM MST 6:41 PM MST
Astronomical Twilight 5:13 AM MST 7:09 PM MST
Moon 12:05 PM MST (10/20) 10:45 PM MST (10/20)
Length of Visible Light 12h 01m
Length of Day
11h 11m
Waxing Crescent, 35% of the Moon is Illuminated
Oct 20
Waxing Crescent
Oct 21
First Quarter
Oct 29
Full
Nov 6
Last Quarter
Nov 13
New

Hourly Weather History & Observations

Time (MST) Temp. Dew Point Humidity Pressure Visibility Wind Dir Wind Speed Gust Speed Precip Events Conditions
12:15 AM 64.4 °F 33.8 °F 32% 29.85 in 10.0 mi Calm Calm - N/A   Clear
12:35 AM 64.4 °F 33.8 °F 32% 29.84 in 10.0 mi Calm Calm - N/A   Clear
12:55 AM 66.2 °F 35.6 °F 32% 29.84 in 10.0 mi Calm Calm - N/A   Clear
1:15 AM 66.2 °F 35.6 °F 32% 29.84 in 10.0 mi Calm Calm - N/A   Clear
1:35 AM 64.4 °F 35.6 °F 34% 29.84 in 10.0 mi Calm Calm - N/A   Clear
1:55 AM 64.4 °F 33.8 °F 32% 29.84 in 10.0 mi Calm Calm - N/A   Clear
2:15 AM 64.4 °F 33.8 °F 32% 29.84 in 10.0 mi Calm Calm - N/A   Clear
2:35 AM 64.4 °F 33.8 °F 32% 29.83 in 10.0 mi Calm Calm - N/A   Clear
2:55 AM 62.6 °F 35.6 °F 37% 29.83 in 10.0 mi Calm Calm - N/A   Clear
3:15 AM 62.6 °F 35.6 °F 37% 29.83 in 10.0 mi Calm Calm - N/A   Clear
3:35 AM 62.6 °F 35.6 °F 37% 29.82 in 10.0 mi Calm Calm - N/A   Clear
3:55 AM 62.6 °F 35.6 °F 37% 29.82 in 10.0 mi Calm Calm - N/A   Clear
4:15 AM 62.6 °F 35.6 °F 37% 29.82 in 10.0 mi Calm Calm - N/A   Clear
4:35 AM 62.6 °F 35.6 °F 37% 29.83 in 10.0 mi Calm Calm - N/A   Clear
4:55 AM 60.8 °F 33.8 °F 36% 29.83 in 10.0 mi Calm Calm - N/A   Clear
5:15 AM 60.8 °F 33.8 °F 36% 29.83 in 10.0 mi Calm Calm - N/A   Clear
5:35 AM 60.8 °F 33.8 °F 36% 29.84 in 10.0 mi Calm Calm - N/A   Clear
5:55 AM 60.8 °F 35.6 °F 39% 29.84 in 10.0 mi Calm Calm - N/A   Clear
6:15 AM 60.8 °F 33.8 °F 36% 29.84 in 10.0 mi Calm Calm - N/A   Clear
6:35 AM 60.8 °F 33.8 °F 36% 29.85 in 10.0 mi Calm Calm - N/A   Clear
6:55 AM 60.8 °F 33.8 °F 36% 29.85 in 10.0 mi Calm Calm - N/A   Clear
7:15 AM 62.6 °F 35.6 °F 37% 29.86 in 10.0 mi Calm Calm - N/A   Clear
7:35 AM 62.6 °F 35.6 °F 37% 29.87 in 10.0 mi Calm Calm - N/A   Clear
7:55 AM 66.2 °F 37.4 °F 35% 29.87 in 10.0 mi Calm Calm - N/A   Clear
8:15 AM 66.2 °F 37.4 °F 35% 29.88 in 10.0 mi Calm Calm - N/A   Clear
8:35 AM 69.8 °F 37.4 °F 31% 29.89 in 10.0 mi Calm Calm - N/A   Clear
8:55 AM 71.6 °F 37.4 °F 29% 29.89 in 10.0 mi Calm Calm - N/A   Clear
9:15 AM 73.4 °F 39.2 °F 29% 29.88 in 10.0 mi Calm Calm - N/A   Clear
9:35 AM 73.4 °F 39.2 °F 29% 29.88 in 10.0 mi Calm Calm - N/A   Clear
9:55 AM 75.2 °F 39.2 °F 27% 29.88 in 10.0 mi Calm Calm - N/A   Clear
10:15 AM 78.8 °F 39.2 °F 24% 29.87 in 10.0 mi Calm Calm - N/A   Clear
10:35 AM 80.6 °F 39.2 °F 23% 29.87 in 10.0 mi Calm Calm - N/A   Clear
10:55 AM 82.4 °F 39.2 °F 21% 29.87 in 10.0 mi Calm Calm - N/A   Clear
11:15 AM 84.2 °F 39.2 °F 20% 29.86 in 10.0 mi Calm Calm - N/A   Clear
11:35 AM 84.2 °F 39.2 °F 20% 29.85 in 10.0 mi Calm Calm - N/A   Clear
11:55 AM 84.2 °F 39.2 °F 20% 29.84 in 10.0 mi Calm Calm - N/A   Clear
12:15 PM 87.8 °F 39.2 °F 18% 29.83 in 10.0 mi Calm Calm - N/A   Clear
12:35 PM 87.8 °F 39.2 °F 18% 29.82 in 10.0 mi Calm Calm - N/A   Clear
12:55 PM 87.8 °F 39.2 °F 18% 29.81 in 10.0 mi Calm Calm - N/A   Clear
1:15 PM 87.8 °F 41.0 °F 19% 29.80 in 10.0 mi Calm Calm - N/A   Clear
1:35 PM 89.6 °F 41.0 °F 18% 29.79 in 10.0 mi Calm Calm - N/A   Clear
1:55 PM 87.8 °F 39.2 °F 18% 29.79 in 10.0 mi West 8.1 mph - N/A   Clear
2:15 PM 89.6 °F 37.4 °F 16% 29.78 in 10.0 mi West 6.9 mph - N/A   Clear
2:35 PM 89.6 °F 37.4 °F 16% 29.78 in 10.0 mi West 10.4 mph 16.1 mph N/A   Clear
2:55 PM 89.6 °F 37.4 °F 16% 29.78 in 10.0 mi Calm Calm - N/A   Clear
3:15 PM 89.6 °F 37.4 °F 16% 29.77 in 10.0 mi West 4.6 mph - N/A   Clear
3:35 PM 89.6 °F 37.4 °F 16% 29.77 in 10.0 mi WNW 6.9 mph - N/A   Clear
3:55 PM 89.6 °F 37.4 °F 16% 29.76 in 10.0 mi Calm Calm - N/A   Clear
4:15 PM 89.6 °F 37.4 °F 16% 29.76 in 10.0 mi SW 5.8 mph - N/A   Clear
4:35 PM 89.6 °F 39.2 °F 17% 29.76 in 10.0 mi Calm Calm - N/A   Partly Cloudy
4:55 PM 87.8 °F 39.2 °F 18% 29.76 in 10.0 mi Calm Calm - N/A   Partly Cloudy
5:15 PM 87.8 °F 35.6 °F 16% 29.76 in 10.0 mi Calm Calm - N/A   Partly Cloudy
5:35 PM 87.8 °F 35.6 °F 16% 29.76 in 10.0 mi Calm Calm - N/A   Scattered Clouds
5:55 PM 84.2 °F 35.6 °F 18% 29.76 in 10.0 mi Calm Calm - N/A   Scattered Clouds
6:15 PM 84.2 °F 35.6 °F 18% 29.76 in 10.0 mi Calm Calm - N/A   Mostly Cloudy
6:35 PM 82.4 °F 35.6 °F 19% 29.76 in 10.0 mi Calm Calm - N/A   Mostly Cloudy
6:55 PM 82.4 °F 33.8 °F 17% 29.77 in 10.0 mi Calm Calm - N/A   Partly Cloudy
7:15 PM 80.6 °F 33.8 °F 18% 29.77 in 10.0 mi Calm Calm - N/A   Mostly Cloudy
7:35 PM 80.6 °F 33.8 °F 18% 29.77 in 10.0 mi Calm Calm - N/A   Mostly Cloudy
7:55 PM 80.6 °F 35.6 °F 20% 29.78 in 10.0 mi Calm Calm - N/A   Mostly Cloudy
8:15 PM 80.6 °F 35.6 °F 20% 29.78 in 10.0 mi Calm Calm - N/A   Mostly Cloudy
8:35 PM 80.6 °F 35.6 °F 20% 29.79 in 10.0 mi Calm Calm - N/A   Overcast
8:55 PM 78.8 °F 35.6 °F 21% 29.80 in 10.0 mi Calm Calm - N/A   Partly Cloudy
9:15 PM 75.2 °F 33.8 °F 22% 29.80 in 10.0 mi Calm Calm - N/A   Clear
9:35 PM 75.2 °F 35.6 °F 24% 29.80 in 10.0 mi Calm Calm - N/A   Clear
9:55 PM 78.8 °F 37.4 °F 23% 29.80 in 10.0 mi Calm Calm - N/A   Clear
10:15 PM 75.2 °F 39.2 °F 27% 29.80 in 10.0 mi Calm Calm - N/A   Clear
10:35 PM 73.4 °F 42.8 °F 33% 29.80 in 10.0 mi Calm Calm - N/A   Clear
10:55 PM 73.4 °F 42.8 °F 33% 29.81 in 10.0 mi Calm Calm - N/A   Clear
11:15 PM 71.6 °F 41.0 °F 33% 29.81 in 10.0 mi Calm Calm - N/A   Clear
11:35 PM 71.6 °F 42.8 °F 35% 29.81 in 10.0 mi Calm Calm - N/A   Clear
11:55 PM 69.8 °F 42.8 °F 38% 29.81 in 10.0 mi Calm Calm - N/A   Clear